Theta_e
327 327 327 327 327 328 328 329 329 330 334 333 333 332 331 331 332 331 331 331 331 332 334 335 334 334 333 333 332 332 332 333 334 336 336 337 337 340 340 339 338 338 339 340 339 338 337 337 337 338 338 338 338 337 338 339 338 335 334 333 333 334 334 335 335 336 335 336 336 336 336 335 335 335 336 335 334 334 333 332 334 334 334 334 333
327 327 326 325 326 327 328 327 327 328 330 330 332 331 331 331 331 331 330 330 331 332 336 334 333 334 333 332 331 332 333 333 333 334 335 335 336 338 337 336 336 337 338 340 339 337 336 337 337 338 337 337 336 336 337 338 335 334 334 333 333 332 334 335 335 335 335 335 335 335 335 335 334 333 334 334 334 334 334 334 334 333 333 332 332
327 327 326 325 325 326 327 327 327 327 328 329 329 332 331 331 331 330 330 330 331 332 333 332 331 332 333 331 331 332 333 333 334 335 336 336 335 334 336 336 338 339 339 339 338 338 336 336 337 337 337 338 337 337 336 337 335 335 332 332 333 334 334 334 334 334 334 333 333 333 333 333 333 333 333 332 332 332 333 333 332 332 332 331 331
326 327 326 325 325 325 326 327 327 326 328 328 328 328 329 329 330 331 331 331 331 330 333 331 330 332 332 332 333 333 333 335 335 336 336 336 334 333 334 337 339 338 338 338 338 337 336 337 337 337 338 337 337 334 337 336 336 334 334 335 334 333 333 332 332 332 331 331 331 331 331 331 331 330 330 330 330 329 329 329 329 329 329 329 328
326 327 329 323 324 325 325 327 327 327 327 328 327 327 327 326 328 328 329 326 326 330 331 330 330 330 332 332 333 334 335 335 337 337 336 336 335 334 334 335 334 336 338 337 337 337 336 336 337 336 335 336 336 335 337 336 335 334 334 334 332 331 331 330 330 330 330 330 329 329 329 328 328 328 329 328 328 328 328 328 327 327 328 328 328
326 325 324 324 323 324 325 326 326 327 326 327 325 326 326 325 327 326 329 325 327 330 329 328 329 330 331 332 333 334 336 335 336 335 336 336 335 335 334 333 333 333 334 336 336 336 336 337 337 336 335 335 336 335 336 335 335 334 334 333 332 330 329 328 327 327 327 327 327 327 326 326 326 326 326 326 326 326 325 325 325 325 325 326 326
327 325 324 323 323 323 324 325 326 327 325 325 325 325 325 324 327 325 324 325 327 330 327 328 329 329 331 332 332 334 335 335 335 334 334 335 335 332 332 332 333 332 331 332 333 334 334 335 335 334 334 334 336 336 334 335 334 333 335 333 330 329 328 327 327 326 326 325 325 325 324 325 324 324 324 324 323 323 323 323 322 322 322 322 323
325 325 324 323 322 323 323 324 326 326 324 324 326 324 324 324 326 325 323 324 327 326 328 328 329 329 330 331 332 333 333 334 334 333 332 331 332 332 332 333 333 332 331 329 329 331 334 334 334 333 333 333 334 333 334 333 332 332 334 331 330 328 327 327 326 325 325 325 324 324 323 323 322 322 322 322 321 321 321 320 320 320 320 320 320
325 325 325 324 323 323 323 323 326 324 324 324 324 325 323 324 324 327 322 323 325 326 327 328 328 328 329 329 330 331 330 331 331 330 330 330 330 332 331 331 332 331 329 328 327 326 329 331 332 332 332 333 333 333 333 332 332 331 332 331 329 327 326 325 324 323 324 323 323 322 321 321 320 319 319 319 319 319 319 318 318 318 318 318 317
324 326 325 329 324 323 323 323 325 323 323 323 323 323 323 323 324 325 326 324 324 326 326 327 327 328 328 328 329 329 329 329 330 332 330 328 329 330 330 331 329 328 327 326 325 325 324 325 327 329 330 330 330 330 331 332 331 332 332 331 328 327 325 324 323 322 323 322 322 321 321 319 319 318 318 318 318 318 317 317 316 316 316 316 316
326 325 327 327 323 323 323 323 324 322 322 322 322 324 324 322 324 324 327 327 326 327 327 326 326 326 326 327 328 328 328 329 328 328 330 330 331 330 330 329 327 327 325 323 323 322 322 323 322 322 323 329 328 329 328 328 328 329 329 329 328 327 325 323 321 321 321 321 320 320 320 319 318 317 317 316 316 316 316 316 316 315 315 315 315
328 324 322 329 321 322 322 323 324 322 322 321 321 321 321 321 324 325 323 326 326 326 326 325 325 325 325 325 326 327 327 327 327 326 327 330 330 330 328 328 327 324 322 321 321 320 320 321 323 320 321 322 326 327 326 326 325 325 327 326 327 325 324 323 321 320 319 319 318 318 318 318 317 317 316 315 315 315 315 315 315 315 315 315 314
332 325 321 324 323 321 320 322 321 324 323 321 321 322 323 322 322 324 324 322 324 324 325 326 324 322 323 323 324 326 327 325 324 325 324 326 328 327 328 327 325 324 321 320 319 320 320 319 320 319 319 319 320 322 325 324 323 323 324 324 324 324 322 321 320 319 318 318 318 317 317 317 316 316 316 315 315 315 315 314 315 315 315 315 314
326 328 325 322 321 320 320 319 321 322 325 324 325 325 319 320 320 321 321 322 322 324 325 323 320 320 319 318 321 324 325 324 323 323 324 326 326 326 326 326 324 321 320 319 319 318 319 318 319 317 317 317 317 318 320 322 321 321 322 321 321 322 321 321 319 318 317 317 316 316 316 316 316 316 315 315 314 313 314 315 314 314 314 314 313
321 330 323 321 319 319 320 318 319 325 319 318 318 319 318 318 320 320 320 321 324 326 325 323 319 319 318 317 314 315 320 323 324 324 324 325 325 325 326 324 320 320 319 317 316 315 315 315 314 314 314 314 315 315 317 321 319 320 320 320 319 319 320 319 319 317 316 316 316 316 316 315 316 316 315 314 313 313 314 314 314 314 313 312 312
321 322 323 317 318 318 318 318 320 322 316 319 318 318 317 319 319 322 319 318 319 320 327 322 321 321 316 314 315 315 312 315 318 322 326 324 324 324 323 320 319 317 317 315 313 313 312 312 311 312 312 313 313 314 315 318 319 318 319 318 317 317 318 318 318 317 316 315 315 315 314 315 315 315 315 314 314 313 313 313 313 313 312 312 312
321 319 329 320 316 317 318 318 319 319 319 317 318 319 318 317 318 320 319 319 318 317 320 325 321 323 320 314 312 311 312 315 318 317 323 322 323 323 323 320 317 315 313 312 312 311 311 310 310 311 311 312 312 312 313 315 317 318 316 317 316 316 316 316 316 316 316 315 314 314 314 315 314 314 314 313 314 313 313 313 312 312 312 312 312
321 318 320 325 318 318 318 318 319 323 321 318 318 317 317 317 317 318 319 319 319 317 317 323 324 326 321 319 318 315 313 317 315 310 318 322 322 321 319 317 314 312 311 310 309 309 310 309 309 310 310 310 310 310 310 312 314 315 315 312 315 316 315 316 315 315 315 315 314 313 314 314 313 313 313 313 313 312 312 312 311 312 312 311 311
321 319 318 324 320 319 319 319 321 319 327 317 318 319 317 317 322 317 318 321 317 318 317 318 319 322 322 322 322 323 321 317 311 312 311 316 319 318 315 312 310 309 308 306 307 307 308 309 308 308 309 309 309 309 309 309 310 312 313 313 314 315 315 314 313 313 314 313 313 313 313 313 313 313 314 313 312 312 311 312 311 311 311 311 312
321 319 318 321 322 319 319 320 320 321 326 319 319 318 319 319 323 317 317 319 319 320 319 317 318 318 322 319 322 322 320 317 319 316 314 310 310 312 312 310 307 306 305 304 305 306 307 308 308 308 308 307 308 308 308 308 308 310 311 313 314 315 314 314 313 313 313 313 312 312 313 313 313 313 313 313 311 311 311 311 310 312 313 313 313
322 320 317 319 327 321 319 319 319 320 329 319 319 320 319 318 317 317 316 315 318 320 318 317 315 316 317 317 317 317 318 318 317 316 315 311 310 309 306 309 307 304 303 302 303 304 305 307 308 306 307 306 306 306 307 308 309 309 309 312 313 314 313 313 313 313 312 312 312 312 312 312 312 312 313 313 312 312 311 313 312 312 312 312 312
321 320 318 318 321 323 320 319 320 320 325 318 317 317 317 317 319 318 318 314 315 318 316 317 317 317 317 315 316 317 318 317 314 315 316 315 311 309 308 307 304 301 303 302 303 303 304 305 305 305 304 304 304 305 306 307 307 306 306 308 310 312 313 313 312 313 312 312 312 312 312 312 312 312 312 313 313 312 312 313 313 312 313 313 313
321 321 320 318 319 322 321 320 320 325 327 317 317 316 316 316 316 318 319 315 313 315 320 317 317 317 316 317 318 318 317 315 315 314 314 311 311 310 311 309 302 298 301 303 303 303 303 304 304 304 304 304 304 305 305 305 303 304 307 307 308 309 311 312 313 313 313 313 312 312 312 312 312 311 313 314 314 313 312 312 311 311 313 313 314
320 320 320 320 319 320 323 321 322 322 322 318 317 316 316 315 316 317 315 314 313 319 316 317 316 316 316 317 317 317 315 317 316 317 315 313 313 311 307 302 301 300 301 301 303 302 303 303 303 303 303 303 304 305 305 305 303 304 302 306 306 308 309 310 311 312 313 313 312 312 312 312 311 313 313 313 313 313 312 311 311 312 313 313 314
320 320 321 321 319 319 320 319 319 320 320 318 318 317 316 315 315 315 314 314 314 315 315 314 316 318 318 316 318 317 319 317 316 317 315 315 313 309 305 305 301 298 300 302 299 302 303 303 303 302 301 302 302 303 304 305 304 303 301 301 305 305 307 309 310 311 312 313 313 312 312 312 311 313 312 312 312 312 311 311 311 312 313 314 313
320 321 322 322 320 319 320 320 320 320 320 318 318 318 315 314 315 313 314 314 313 314 315 315 314 316 316 316 316 316 318 318 317 316 315 313 311 309 305 302 300 298 302 301 301 297 299 303 303 302 300 300 301 302 304 304 303 303 302 299 302 304 305 308 310 311 312 313 312 312 312 311 311 312 311 311 310 310 310 311 312 313 313 314 314
321 322 323 322 321 319 319 318 319 318 319 320 319 317 316 314 315 313 315 313 314 316 315 315 314 314 314 315 316 314 316 317 316 317 316 315 312 309 305 300 299 300 301 300 300 300 299 301 302 301 301 302 302 303 304 305 303 303 301 299 300 302 303 305 307 309 311 312 312 312 311 311 311 310 310 309 308 309 310 311 312 312 313 313 313
321 322 322 322 322 320 320 320 319 318 318 319 317 316 315 314 314 314 314 317 314 314 313 313 313 313 315 313 316 316 316 316 316 317 317 315 313 310 308 306 301 298 299 298 299 299 301 300 301 301 300 301 301 304 304 303 302 302 301 300 300 301 302 302 303 305 307 309 311 311 310 309 309 309 309 309 309 310 310 311 311 312 312 312 312
322 323 322 322 320 319 319 319 319 317 317 317 316 315 314 314 314 312 313 313 314 313 313 313 314 315 314 315 317 317 316 316 317 317 317 316 313 311 310 308 307 302 297 297 298 299 299 302 299 300 302 301 302 304 301 302 303 301 301 300 300 301 301 301 302 303 303 304 306 308 310 309 309 308 308 309 310 310 310 310 311 311 311 311 309
323 323 323 322 320 320 319 317 317 316 316 316 315 315 314 314 313 313 313 312 313 312 311 313 313 315 316 314 315 317 317 317 317 315 317 316 313 311 310 310 309 305 301 300 299 301 300 302 303 300 303 302 303 302 300 301 303 301 301 301 300 300 301 301 300 301 301 300 301 303 305 307 308 308 308 308 309 310 310 310 310 309 309 308 307
324 323 322 321 321 320 317 317 317 317 315 315 315 314 313 313 312 313 312 310 310 310 310 313 313 313 312 314 312 314 313 315 314 315 316 316 314 312 311 311 309 308 304 303 301 301 303 300 303 304 302 302 303 302 300 300 303 301 301 302 300 299 299 300 300 300 300 299 300 300 302 303 305 306 307 307 308 308 309 308 307 307 306 305 305
324 324 322 321 321 320 319 317 317 317 316 315 314 313 312 312 313 311 311 309 308 309 310 310 311 310 311 312 313 311 310 314 315 315 315 316 315 313 313 311 309 308 307 304 305 302 303 303 303 302 302 303 303 300 299 300 304 302 302 301 299 299 298 298 299 300 299 300 299 299 299 300 301 303 304 305 305 306 306 306 304 303 304 304 303
323 323 323 323 322 321 319 318 317 317 315 314 313 312 312 311 312 312 310 308 309 307 311 308 309 310 311 310 309 309 310 315 314 315 315 316 315 314 314 312 309 307 308 307 304 300 302 305 304 302 303 303 300 300 298 299 300 301 302 301 300 299 298 298 298 298 299 300 300 300 299 299 299 300 301 302 301 301 303 302 302 303 303 303 303
323 323 323 323 323 321 319 318 318 317 316 314 313 312 311 311 311 311 310 308 308 306 306 308 308 309 309 309 307 308 310 311 310 314 315 315 315 314 314 313 311 308 309 307 304 302 300 302 302 303 302 302 299 300 299 299 299 301 300 300 300 299 299 299 298 298 299 300 300 300 299 299 298 298 300 300 299 299 299 300 301 302 302 302 301
321 322 322 323 323 322 320 320 319 318 317 316 314 313 312 311 311 311 310 308 307 306 305 306 306 307 308 309 307 308 309 310 308 308 311 315 315 315 315 314 312 309 309 309 307 303 301 300 302 300 301 300 300 299 299 299 300 301 299 300 299 299 300 300 299 299 299 299 301 301 301 300 298 298 299 299 298 299 299 300 300 300 301 300 300
319 320 321 322 322 321 320 320 318 317 318 317 316 313 312 312 312 311 310 307 307 306 306 305 305 307 308 306 307 308 310 309 307 308 309 314 316 316 316 315 315 312 311 309 309 305 302 300 300 300 301 300 299 300 300 300 299 299 299 300 300 299 299 299 299 299 299 301 302 301 301 299 299 299 299 298 298 299 299 299 300 300 300 299 299
317 318 319 321 321 320 320 319 319 318 318 318 317 314 313 312 312 311 309 308 307 306 305 304 311 307 307 307 307 307 307 309 308 308 308 313 314 316 316 316 313 311 311 310 308 307 303 302 300 300 301 300 300 301 301 299 299 299 300 299 300 299 299 300 300 300 300 300 300 300 300 300 300 300 298 298 298 298 299 299 300 300 299 299 299
314 317 318 318 320 319 320 319 319 319 318 317 316 314 313 311 309 308 309 308 307 305 304 303 311 305 307 306 307 306 307 310 309 307 306 309 311 314 315 315 312 310 310 308 307 306 305 303 302 299 300 300 300 301 302 301 300 299 299 300 300 300 299 299 299 299 301 300 301 300 300 300 301 299 298 298 298 298 299 299 300 300 299 299 298
311 314 316 317 318 319 319 320 319 319 319 318 315 313 313 311 310 308 307 307 306 304 303 304 307 305 305 306 305 305 306 307 307 307 307 307 310 313 315 314 311 309 308 306 305 304 303 301 300 301 301 300 301 300 301 301 300 300 299 299 300 301 300 299 299 299 300 299 300 300 300 301 301 298 297 297 298 298 299 299 300 300 300 299 298
310 312 315 316 316 318 319 319 320 320 318 317 315 313 311 309 309 307 306 306 305 304 304 304 305 305 304 305 305 303 304 305 306 305 307 307 307 310 312 313 310 308 306 305 304 303 302 301 301 300 300 300 300 302 301 300 299 300 300 300 300 301 300 300 299 299 300 299 299 299 299 299 300 298 296 296 297 298 298 300 300 300 299 298 298
309 312 315 315 315 315 317 318 319 319 318 317 315 314 310 309 308 307 305 305 305 305 304 303 303 303 302 302 302 301 305 308 310 308 306 306 307 310 310 313 310 309 306 305 304 302 302 301 301 301 300 300 300 300 300 300 300 301 302 301 301 301 301 300 300 299 299 299 300 299 299 299 300 300 295 298 298 298 298 299 300 300 299 298 297
308 311 313 313 313 314 315 317 318 318 318 317 317 316 314 311 307 307 306 305 305 305 305 303 302 301 301 300 304 309 312 312 308 304 302 304 307 309 309 312 311 308 306 304 303 303 302 301 301 301 300 300 300 301 301 302 302 302 301 301 300 299 300 300 301 301 301 299 298 300 300 300 300 299 296 297 297 297 298 299 298 298 297 297 297
306 309 310 310 311 312 314 315 316 316 317 317 310 302 301 304 310 306 305 305 305 305 305 304 302 302 301 301 303 313 311 308 305 301 300 299 299 301 305 310 312 310 306 305 304 303 303 303 302 301 301 301 301 301 301 302 302 302 302 301 301 299 300 299 300 302 302 300 299 298 301 300 299 298 297 297 296 297 298 298 298 298 297 297 296
305 307 307 307 309 311 313 314 315 315 316 314 301 299 299 298 304 308 305 304 305 305 304 304 303 302 302 304 304 302 299 300 303 304 304 301 299 299 300 303 305 306 305 307 305 303 304 303 302 302 302 302 302 301 301 301 302 301 301 301 301 300 299 299 298 301 300 301 299 299 301 298 299 299 298 296 297 297 297 298 298 298 297 296 296
304 304 304 305 306 308 310 312 312 314 314 308 300 300 298 298 297 306 306 305 305 306 304 303 302 302 303 304 300 298 303 309 304 301 302 304 304 303 304 304 303 300 299 300 302 307 306 306 305 303 303 304 302 302 303 304 304 302 301 300 299 299 300 300 299 299 300 301 300 299 299 298 299 299 297 296 297 297 297 298 297 297 297 297 296
301 302 302 303 304 305 307 308 310 312 311 306 299 300 298 295 295 298 304 304 305 305 304 303 303 302 303 302 299 299 302 301 299 299 297 297 298 299 299 299 300 302 301 299 300 300 306 308 307 305 305 306 305 306 306 305 304 303 301 301 299 299 299 302 301 300 300 301 302 301 299 299 299 298 296 296 296 297 297 296 296 297 296 296 296
300 300 301 301 302 303 304 306 307 308 308 301 297 298 297 295 294 299 304 303 303 303 304 303 303 302 302 301 299 299 300 298 299 299 297 297 298 298 298 297 297 297 298 299 299 301 307 308 308 309 308 306 307 308 307 306 307 306 305 304 302 302 301 299 299 300 300 301 300 300 297 298 298 297 295 296 296 296 295 294 294 295 295 295 296
299 299 300 300 300 301 302 304 304 305 306 299 297 297 297 295 297 302 303 303 303 303 303 303 302 301 301 300 298 298 300 298 302 298 298 297 297 298 297 297 297 296 298 298 295 295 300 303 306 307 307 307 303 307 307 305 306 306 305 302 302 301 301 300 299 299 301 300 300 300 298 298 296 296 295 296 296 293 293 294 293 293 294 294 295
297 297 298 299 300 300 301 302 303 303 303 301 296 296 297 296 299 303 303 304 304 303 302 303 302 301 300 299 298 297 300 299 299 293 294 298 296 296 296 296 296 298 298 297 296 293 292 293 294 295 296 296 297 296 296 297 302 303 304 302 300 301 300 298 298 298 299 299 298 298 300 297 297 296 294 294 294 292 291 292 293 292 292 293 294
296 296 298 298 298 300 299 300 302 302 301 302 297 296 296 296 301 303 303 302 302 302 302 302 302 301 300 304 302 298 300 301 296 293 293 298 296 295 296 297 298 298 298 296 297 298 296 294 294 293 294 295 296 295 295 296 296 303 307 304 302 301 301 300 299 299 300 299 300 297 300 297 296 296 295 293 295 293 292 292 292 292 292 292 293
296 296 298 296 296 297 298 300 303 301 300 301 298 296 296 296 301 304 303 303 301 301 302 302 301 302 301 305 307 302 301 301 294 293 293 299 296 296 296 296 297 296 298 294 297 299 300 301 301 303 302 303 303 304 302 297 299 305 306 305 301 303 301 300 300 298 298 299 301 299 298 295 297 294 294 294 293 292 293 292 292 292 292 291 292
Wind_Speed
5 5 4 5 5 5 5 5 5 4 3 3 2 4 3 3 3 3 3 3 3 3 1 1 3 4 3 4 4 4 3 3 2 2 2 2 2 2 1 2 2 4 6 8 8 8 9 10 8 9 9 11 11 10 12 11 10 8 10 8 7 9 9 5 12 13 12 13 14 14 14 15 14 13 12 13 12 8 6 6 5 8 9 8 8
5 5 5 5 5 5 5 5 5 5 5 5 4 3 3 3 3 3 3 3 3 2 3 3 4 5 4 4 4 3 3 2 2 1 1 1 1 3 3 2 4 5 7 9 10 9 9 7 6 9 10 9 6 6 9 9 11 8 5 5 7 7 9 14 14 14 15 16 16 17 17 17 16 15 14 14 15 15 15 14 14 12 11 11 11
4 4 4 4 5 5 5 4 5 6 5 5 5 4 3 3 4 4 4 3 3 2 2 3 4 5 5 5 4 4 3 3 2 2 2 1 3 3 5 7 7 7 7 9 11 11 11 8 7 9 12 9 8 9 6 9 8 13 13 5 9 11 15 16 16 16 16 15 16 16 17 17 17 16 14 14 14 13 13 12 12 11 12 13 13
4 3 4 4 4 4 4 5 5 5 5 5 5 5 4 4 4 3 3 3 3 3 3 5 6 4 4 5 4 4 4 4 3 2 2 3 4 4 5 8 11 13 13 12 13 16 14 11 10 13 15 10 11 13 10 14 16 11 13 19 19 18 18 17 16 16 17 17 17 17 16 17 17 17 15 13 13 14 13 13 13 13 14 14 14
3 3 2 3 3 4 5 4 4 5 5 5 4 5 5 5 5 4 3 4 5 5 4 6 6 5 5 5 6 6 5 4 3 3 3 4 4 5 6 6 7 12 16 16 16 17 16 14 13 13 14 12 11 9 12 14 15 15 20 19 17 17 16 16 16 17 18 17 17 18 18 18 17 17 18 17 16 15 15 14 14 15 14 14 14
3 3 2 3 3 4 4 4 4 4 4 4 5 5 5 5 5 4 5 6 5 4 4 6 5 5 5 5 5 5 4 5 4 4 4 4 5 6 6 6 7 8 9 16 18 16 17 17 17 17 14 13 14 14 14 14 14 14 17 18 17 16 16 16 17 17 17 16 15 16 16 17 17 17 16 18 17 17 15 15 15 16 16 15 15
3 2 3 3 4 4 4 4 4 4 4 5 5 4 5 5 5 5 4 6 5 5 5 6 6 6 5 5 5 5 5 5 4 4 4 4 5 6 7 7 7 7 8 6 10 17 18 19 18 16 15 14 16 16 14 13 13 15 18 18 17 16 17 17 16 16 15 14 15 15 15 15 16 16 15 16 17 16 16 16 16 16 17 16 16
3 2 3 4 4 4 4 5 5 3 4 4 4 5 5 4 5 4 4 5 6 6 6 7 6 6 5 5 5 5 4 5 5 4 4 5 6 5 5 6 7 6 7 6 5 10 19 19 18 19 18 17 17 15 15 14 12 13 17 17 16 17 16 16 16 15 14 14 14 14 14 15 15 15 16 16 17 17 17 17 17 17 17 17 17
3 3 3 3 4 4 4 5 4 4 4 5 5 4 4 4 5 5 4 4 5 7 6 6 6 6 6 6 5 6 5 5 5 4 5 6 6 5 6 7 7 9 6 6 5 5 12 16 17 18 18 18 17 16 15 15 15 15 16 16 15 15 15 15 14 14 14 13 13 13 13 15 15 16 16 16 16 16 16 16 16 16 16 16 16
3 3 4 3 3 4 4 5 4 4 4 5 5 4 4 4 5 5 4 4 4 6 6 6 6 7 7 7 6 5 5 5 5 4 4 5 7 7 7 6 6 6 5 5 6 6 5 10 13 14 18 16 16 15 16 16 16 18 17 15 14 14 15 14 14 14 13 13 13 13 14 14 15 16 16 16 16 16 15 15 15 15 15 16 16
3 4 4 4 5 5 4 5 4 4 4 5 5 5 5 5 5 4 5 6 5 6 6 7 7 7 7 8 7 6 4 5 5 5 4 4 6 6 6 6 6 6 6 6 6 6 7 6 6 5 7 16 16 16 16 17 16 16 16 16 15 15 15 15 14 13 13 14 14 14 14 14 14 15 15 16 15 15 15 16 16 16 16 16 16
2 2 3 3 4 4 3 3 3 3 4 5 5 5 5 6 6 4 5 5 4 5 5 7 7 6 7 6 7 6 6 4 4 4 4 6 5 5 5 6 6 7 7 6 6 6 6 6 6 6 5 9 14 15 16 17 17 16 15 16 16 16 15 14 13 13 14 14 14 14 14 14 15 15 16 16 16 16 16 16 16 17 17 17 17
1 2 3 3 3 3 3 3 3 3 3 3 3 4 4 4 4 3 4 4 4 2 1 2 5 5 5 6 6 6 6 6 6 5 4 4 6 6 6 6 6 6 6 5 6 6 6 6 5 5 6 5 7 13 14 16 17 16 16 17 17 16 15 14 13 13 14 14 14 15 15 14 15 15 15 16 16 15 15 16 15 15 16 16 16
1 0 1 1 2 3 3 3 3 2 1 2 1 3 5 5 4 4 3 3 2 2 2 1 2 3 4 4 5 4 6 6 6 5 5 5 7 8 7 6 6 5 5 6 6 6 6 6 6 6 6 6 6 6 7 8 12 16 16 16 16 16 16 15 14 14 14 14 14 14 15 15 16 16 16 16 17 16 16 16 16 16 16 16 16
2 0 0 0 0 1 2 2 1 1 1 2 3 4 3 4 5 3 3 3 2 2 3 1 1 2 3 4 1 2 2 4 4 5 5 6 6 8 7 6 7 5 5 6 6 5 6 6 7 7 6 7 6 6 6 7 12 16 16 16 16 16 16 15 15 15 15 15 15 15 15 16 17 17 17 17 17 17 16 17 16 16 16 16 17
2 1 1 1 1 0 1 1 1 2 2 2 3 2 2 3 4 4 2 2 3 2 2 1 2 5 1 1 2 2 3 3 3 2 4 5 6 7 6 6 6 6 5 6 5 5 5 5 6 6 6 7 6 6 6 6 11 14 15 16 15 15 16 15 14 15 15 15 15 15 16 17 17 17 17 17 17 17 16 16 16 17 17 17 17
3 3 3 2 2 3 3 2 2 3 3 3 2 1 2 1 1 4 4 2 4 2 2 1 1 0 3 3 2 0 2 4 4 1 2 4 4 5 6 7 7 5 5 5 5 5 5 6 6 7 7 6 7 6 6 7 6 6 9 14 15 15 15 15 15 15 14 14 14 15 15 16 16 16 16 17 17 17 17 17 17 17 18 17 17
4 4 3 3 3 3 3 4 3 4 4 4 3 2 2 2 3 3 2 2 1 2 3 2 2 0 2 2 4 2 4 4 2 2 3 3 5 6 7 7 6 5 4 5 6 6 5 5 6 6 6 6 6 6 6 7 8 6 6 10 15 14 14 14 15 15 14 15 14 14 15 16 16 16 17 17 17 18 18 17 18 17 17 17 18
4 4 3 3 3 3 3 3 3 4 3 4 4 4 3 2 1 1 2 3 2 3 4 3 3 1 0 2 3 3 6 6 3 2 2 2 3 7 7 7 6 6 6 6 6 5 4 4 6 6 6 5 6 5 6 7 10 10 14 15 14 14 14 15 15 15 14 14 14 15 15 15 16 16 16 17 17 18 18 17 17 17 18 18 18
5 5 4 4 4 4 3 3 3 4 3 5 5 4 3 2 2 1 1 2 2 0 3 0 1 3 1 2 1 3 4 2 5 4 4 5 4 7 7 6 7 7 7 6 6 5 4 4 5 5 5 6 5 5 6 6 6 6 7 15 15 14 15 14 15 15 15 15 15 15 15 16 16 16 17 17 18 18 18 19 19 19 18 18 17
4 5 5 5 4 4 4 4 4 4 3 4 4 3 4 4 3 2 1 1 1 2 1 2 1 2 3 1 3 3 2 2 3 2 3 5 4 5 4 3 6 6 5 5 5 4 4 4 5 5 4 5 5 5 5 6 6 6 11 16 16 15 14 14 14 15 15 15 15 15 15 16 16 16 17 17 18 19 20 20 19 20 20 20 19
5 4 5 6 5 4 5 5 5 5 3 4 4 4 4 3 3 4 3 2 2 3 3 2 2 2 2 2 2 2 3 2 2 4 3 1 5 6 6 7 4 2 3 4 5 4 3 3 4 4 4 4 4 5 5 6 6 7 12 17 16 16 15 15 15 15 16 16 15 15 16 16 17 17 17 18 19 20 20 21 21 22 22 21 19
5 5 5 5 5 5 5 6 5 5 4 4 5 5 5 4 4 4 3 2 3 3 3 2 2 2 1 2 2 2 2 3 2 1 2 4 5 6 5 3 4 5 3 3 4 3 3 4 4 4 4 4 4 5 5 5 9 11 16 17 17 16 16 15 15 16 16 16 16 16 17 17 17 17 19 20 21 21 21 21 21 22 21 20 21
5 6 6 6 5 6 5 5 5 5 6 6 5 5 5 4 4 4 3 3 3 3 3 3 2 1 2 2 3 5 4 3 4 6 6 4 7 7 6 4 4 3 3 3 3 3 4 5 4 4 3 4 4 4 4 5 9 15 9 15 17 17 17 16 16 16 17 17 17 18 18 18 17 19 20 20 20 21 21 21 22 22 22 22 22
7 6 7 7 6 6 7 6 6 6 6 6 5 5 5 5 5 5 4 3 3 3 1 1 3 3 3 3 2 2 3 2 2 4 1 5 7 7 3 2 3 4 3 2 2 2 3 4 3 3 3 4 3 3 3 4 6 12 11 9 18 17 18 18 17 17 17 18 18 19 19 18 19 20 20 20 21 22 22 22 22 23 23 23 22
8 8 8 7 6 7 7 7 4 6 7 7 6 6 5 6 5 5 5 3 3 3 3 2 2 4 2 3 3 3 2 2 3 4 5 6 6 9 7 3 3 4 1 1 1 2 1 2 3 2 2 3 3 2 3 5 6 12 13 8 11 17 17 18 19 18 18 19 19 20 19 20 20 20 20 20 21 21 22 23 23 24 24 24 24
7 8 9 8 8 7 6 4 7 7 7 7 6 5 6 5 5 5 4 3 4 4 3 2 2 4 4 4 3 3 3 3 4 4 5 7 8 9 10 8 3 2 1 1 0 1 2 1 1 1 1 2 2 2 3 4 8 12 9 6 6 16 17 18 18 19 19 19 20 20 20 20 20 20 20 20 21 21 22 22 23 23 24 23 23
8 8 9 7 8 7 6 8 8 8 8 8 7 6 6 6 5 4 5 3 4 4 3 4 3 3 4 3 3 4 4 4 4 4 5 5 6 7 9 9 9 4 1 2 1 0 2 2 1 2 1 1 2 2 5 5 5 9 8 5 5 7 16 16 18 19 20 19 19 19 20 20 20 20 20 20 21 21 22 22 22 22 23 23 24
8 8 9 9 7 7 7 8 8 7 7 6 5 6 6 6 6 5 5 5 4 5 4 4 4 3 3 5 5 4 4 4 3 3 4 4 5 6 8 9 7 7 5 4 5 3 4 3 3 3 3 2 2 2 3 3 6 6 4 4 5 6 12 15 16 17 18 18 18 18 19 20 20 20 20 20 20 21 21 21 21 22 22 23 24
8 8 9 10 9 7 6 7 6 5 5 5 6 6 6 6 6 5 5 5 5 2 3 3 4 3 2 3 3 3 3 4 3 3 4 5 6 6 6 4 6 9 6 6 5 4 3 3 2 3 3 3 2 2 3 2 7 6 4 4 5 6 11 13 13 14 14 14 15 16 17 18 19 20 21 21 21 20 20 20 20 20 21 22 22
9 9 8 9 9 9 7 7 6 7 6 6 6 6 6 6 5 5 4 5 5 4 3 3 4 3 3 3 2 3 3 4 4 3 3 4 5 6 5 5 3 5 8 4 3 3 3 5 4 2 3 4 2 2 2 2 4 5 4 3 4 9 9 8 11 11 11 11 13 14 16 17 18 19 20 21 21 21 21 20 20 19 19 19 20
10 10 9 9 9 10 9 7 8 6 6 7 7 8 7 6 6 5 5 5 4 4 4 3 4 4 3 3 2 2 2 4 4 3 4 3 4 5 5 5 4 4 5 3 3 4 2 3 4 3 5 4 3 3 3 2 3 6 3 2 4 6 4 3 6 9 9 10 11 11 12 14 16 18 19 20 20 21 21 20 20 18 17 18 18
11 12 12 11 10 9 10 9 8 7 7 7 7 7 6 6 6 6 6 6 5 4 4 3 3 4 3 3 2 2 2 4 4 4 4 4 4 4 4 5 5 5 5 3 4 4 2 1 3 3 4 5 3 2 3 2 3 2 3 2 2 3 2 2 2 5 8 9 9 10 11 11 12 15 18 19 19 18 20 19 19 19 18 17 17
10 11 12 11 10 9 6 8 8 7 5 5 6 4 5 6 6 5 5 6 5 4 4 4 4 2 3 4 3 2 2 5 4 4 5 5 4 5 5 5 6 6 4 4 3 3 4 2 3 2 3 3 3 2 3 3 2 2 3 1 1 1 2 1 2 2 7 8 8 9 10 11 12 12 14 16 15 15 16 16 17 19 21 19 16
10 9 10 11 11 9 9 8 8 5 2 5 5 4 5 6 7 6 5 5 5 5 4 5 5 3 4 4 4 2 2 4 3 3 3 5 5 5 6 4 5 6 5 4 4 3 6 4 3 4 4 3 3 3 3 2 3 2 3 2 1 1 1 2 2 2 4 7 8 9 9 10 11 12 12 12 14 15 16 16 17 17 19 19 17
10 10 10 11 11 10 9 9 5 7 7 5 5 4 4 5 5 6 7 6 5 5 5 5 5 5 5 5 4 4 4 4 3 3 2 4 5 4 5 4 4 5 4 3 4 4 3 5 4 4 4 4 2 1 2 3 3 3 3 2 1 1 2 3 3 2 3 6 7 8 9 9 9 11 12 11 12 14 15 16 17 18 19 18 17
12 10 10 10 11 11 11 9 5 5 7 6 5 4 4 3 4 3 4 5 5 6 6 5 5 5 5 6 6 4 5 5 2 3 3 4 4 4 4 4 4 5 4 4 4 5 6 6 4 2 2 2 1 1 3 3 2 1 2 2 3 3 3 3 3 3 5 6 5 6 7 7 7 10 11 10 11 12 14 15 16 17 18 19 18
12 11 10 10 10 11 12 11 8 7 7 6 4 3 5 4 4 4 4 5 6 6 5 5 5 5 5 5 5 5 5 5 4 3 3 4 3 4 4 5 5 5 5 4 4 5 5 5 6 4 3 4 3 2 2 3 3 2 1 1 1 2 3 3 4 4 3 2 2 3 4 4 6 7 10 10 11 12 13 15 16 18 19 19 19
11 11 11 11 10 10 11 11 10 10 8 5 2 4 3 4 4 4 5 7 7 5 4 5 5 5 4 4 5 5 5 4 5 5 4 3 3 4 5 5 5 6 6 5 5 5 5 5 2 1 3 2 2 3 1 3 2 2 3 2 3 2 3 3 5 4 3 4 4 4 4 5 5 5 9 10 10 12 13 14 15 18 19 19 19
11 11 10 10 9 8 9 10 11 9 9 8 6 5 2 3 4 5 4 4 3 3 3 3 4 4 4 4 5 5 4 5 4 4 4 3 3 3 4 5 5 7 6 6 5 5 5 5 3 4 3 3 2 1 2 3 2 3 4 4 4 2 3 3 4 4 2 2 4 3 3 5 2 5 8 8 9 12 13 12 14 16 19 19 18
10 11 10 10 10 11 10 10 11 11 9 7 6 5 2 2 4 4 5 4 4 3 4 3 3 4 4 3 3 4 3 2 2 2 3 3 4 4 4 6 6 6 6 5 5 5 4 4 3 2 3 3 3 4 3 3 6 5 2 4 4 1 1 2 3 4 4 3 3 3 3 2 5 4 4 5 6 9 9 12 11 15 19 18 18
11 11 12 11 10 10 10 11 11 10 10 7 9 12 5 3 3 4 5 5 4 4 4 4 3 3 4 3 2 4 4 4 4 5 4 3 3 3 6 7 7 7 7 7 6 6 6 5 5 5 5 5 5 6 6 5 1 2 3 4 4 1 0 2 2 3 3 3 2 4 2 1 2 2 4 5 5 5 6 7 9 12 16 19 20
12 12 10 11 11 10 10 10 11 11 10 9 13 11 9 7 4 3 4 3 3 4 4 5 5 5 4 3 1 3 5 5 5 6 6 6 4 3 6 7 7 8 8 7 7 7 7 5 5 4 6 6 6 5 7 3 3 4 3 3 2 2 2 2 2 1 1 3 1 1 2 2 2 3 4 5 4 4 6 7 12 14 16 18 21
12 11 12 12 11 11 10 11 11 11 10 16 14 11 9 9 6 3 2 4 4 4 4 4 4 5 6 4 3 3 2 4 5 5 6 7 7 7 7 5 5 5 6 8 8 6 6 6 6 7 5 6 5 5 5 3 5 3 3 3 4 4 3 3 1 2 1 3 2 1 2 2 1 3 4 4 3 3 6 9 12 13 13 16 18
11 12 12 12 12 11 11 11 11 11 9 18 20 15 9 9 7 5 3 1 4 4 3 4 5 6 6 5 4 3 3 6 5 4 5 5 7 10 10 9 7 5 2 1 4 7 9 8 8 7 8 6 5 6 7 6 5 4 3 3 3 3 3 3 3 2 1 3 2 0 1 2 2 3 4 3 3 3 5 9 15 13 13 13 16
12 12 13 13 12 12 11 11 10 10 10 17 19 19 14 9 3 5 2 3 2 5 3 3 4 5 6 6 6 5 3 4 3 4 4 5 4 5 6 6 5 6 6 6 3 3 6 7 8 9 8 7 8 9 6 7 8 6 6 4 3 4 4 2 1 2 1 4 3 2 2 2 2 2 5 4 3 4 5 10 14 14 14 14 14
10 10 10 11 11 11 12 11 10 11 11 18 18 19 15 8 5 5 3 4 4 5 5 3 2 4 6 5 6 6 5 4 3 4 5 5 5 5 5 6 5 5 4 4 3 1 3 4 6 8 5 8 8 4 6 8 6 5 5 4 6 4 4 2 2 2 1 2 1 1 1 1 1 2 4 3 3 4 5 7 14 15 14 14 14
10 10 11 11 12 13 12 11 11 12 12 19 21 21 17 9 4 2 3 2 2 2 5 2 3 3 3 5 6 6 6 5 5 5 4 5 5 5 5 4 4 4 4 3 2 2 0 3 4 4 2 4 2 3 5 6 5 6 5 6 6 5 5 3 2 1 1 1 1 2 2 1 1 2 3 2 2 5 6 6 11 15 15 14 14
10 11 11 10 9 10 11 11 12 11 11 15 19 21 21 15 4 3 1 3 3 3 4 3 2 3 4 5 5 6 6 5 6 7 6 5 5 4 4 4 3 4 4 2 4 6 4 3 1 2 2 4 6 8 9 11 9 8 7 6 4 4 5 3 1 0 2 0 1 2 2 3 1 1 2 2 4 5 6 7 7 11 14 14 14
10 10 10 10 9 9 10 11 11 11 11 14 18 18 20 20 10 4 2 3 2 2 2 3 2 3 5 8 6 7 7 6 9 9 7 5 5 4 4 4 3 3 3 4 3 5 6 8 9 7 5 5 6 7 10 11 12 9 8 5 5 4 4 3 3 2 1 2 2 4 3 2 1 0 1 0 1 3 5 6 7 8 11 10 13
9 9 9 10 10 10 10 11 15 13 11 13 17 18 17 21 14 5 3 1 2 4 5 3 2 2 3 6 8 7 7 8 12 10 8 5 5 5 4 3 3 3 2 2 4 5 5 5 5 5 6 6 5 5 6 9 7 3 1 6 6 5 4 3 3 2 1 2 2 5 2 2 3 0 1 1 2 1 2 5 7 7 8 8 8
Wind_Direction
28 15 4 26 10 13 14 11 5 2 338 320 287 305 308 295 284 280 267 274 264 268 240 17 66 84 94 75 73 71 71 57 53 34 14 32 350 330 350 313 301 301 307 307 318 336 347 341 336 312 319 324 320 323 301 294 292 332 353 330 328 12 346 21 56 49 46 43 40 35 30 27 26 17 17 10 17 11 311 278 310 27 37 48 49
26 16 28 18 12 10 16 4 1 354 1 358 337 306 309 315 312 295 295 288 279 289 61 105 91 89 81 77 71 75 73 78 56 4 10 12 2 2 348 357 344 339 338 330 331 6 31 17 344 339 338 358 343 313 322 337 1 352 14 38 38 62 58 58 56 52 48 45 40 39 35 34 35 34 30 27 32 37 37 34 35 31 24 24 24
42 30 30 25 18 16 12 353 11 358 350 347 338 347 325 313 316 315 314 305 318 3 70 102 87 80 82 76 70 76 74 71 65 44 62 77 54 25 4 20 22 21 23 23 19 20 38 25 6 8 17 18 17 24 15 27 75 52 27 62 61 87 70 63 58 54 48 46 43 39 35 33 33 35 38 33 29 32 33 30 25 19 18 16 12
55 44 53 39 32 21 8 14 355 346 350 340 343 344 340 332 324 320 300 305 17 21 71 96 86 89 85 76 77 84 90 97 105 109 66 61 59 36 30 46 41 50 49 40 38 43 54 55 31 32 29 30 39 34 22 54 63 80 82 67 63 58 58 57 57 56 52 45 43 40 37 35 32 27 26 30 25 24 24 22 18 16 15 14 8
45 50 48 50 39 33 16 9 351 345 342 337 332 350 1 357 353 359 344 41 50 53 72 81 82 76 77 80 82 79 78 74 74 68 55 49 62 59 56 54 51 45 46 49 51 53 57 59 61 61 45 34 53 63 49 55 64 70 69 68 69 66 65 61 55 53 50 45 40 39 38 35 31 27 21 21 20 22 21 20 18 15 14 12 10
35 41 51 61 44 36 12 359 348 340 337 352 8 357 355 1 349 0 10 38 61 71 74 80 78 78 76 83 80 79 79 76 65 62 54 56 62 64 61 53 51 54 54 51 56 59 59 60 58 63 57 47 53 51 57 56 61 62 74 73 68 62 60 58 53 50 46 41 33 31 29 28 26 24 18 17 18 16 14 14 14 12 9 9 7
5 17 33 37 40 18 2 336 327 343 9 359 5 5 358 357 351 2 4 59 73 72 81 87 90 82 83 90 90 77 63 75 93 98 85 62 59 54 55 61 53 54 54 50 40 50 60 63 60 58 65 61 56 60 69 71 74 74 70 70 63 60 58 54 51 49 46 40 36 33 31 28 25 21 17 11 11 9 6 6 5 4 0 359 1
18 8 37 36 30 11 343 337 347 358 18 9 20 17 346 359 1 3 41 59 89 89 88 87 81 77 70 72 73 69 62 73 74 65 54 58 74 77 68 73 63 53 55 49 43 43 50 57 61 63 63 59 62 61 65 67 64 67 71 67 61 57 57 55 47 40 41 39 37 38 35 33 27 24 19 14 10 9 5 3 4 2 358 353 350
8 16 36 32 22 12 350 354 350 2 20 9 23 359 8 9 9 12 36 79 77 96 89 87 80 75 70 67 57 62 60 64 68 64 74 77 82 75 67 63 62 63 57 58 49 49 45 48 55 59 60 65 68 67 64 57 57 61 64 61 59 58 54 52 45 37 36 35 33 35 36 32 23 19 15 12 10 9 5 2 1 358 354 351 349
1 2 17 13 34 14 1 6 3 4 24 19 4 349 355 35 40 14 30 61 66 95 96 85 78 72 66 62 59 57 56 60 65 68 85 90 89 88 83 74 71 64 59 52 51 51 43 35 36 43 56 57 59 62 63 61 53 50 57 60 59 59 59 53 44 40 39 36 34 30 29 25 19 17 14 11 8 6 4 2 359 357 353 349 350
359 11 13 1 1 10 14 360 5 9 23 21 7 360 5 13 54 40 41 66 83 95 105 101 87 78 71 69 71 66 56 52 54 62 94 121 112 105 90 75 75 64 59 56 54 50 46 33 24 17 30 45 56 59 60 59 52 48 47 47 44 45 45 41 40 35 36 34 27 23 24 24 21 19 16 13 8 5 3 0 359 356 356 353 349
11 30 37 5 3 10 343 9 12 16 35 27 2 4 0 3 22 46 55 61 70 102 115 104 90 84 80 69 61 63 65 59 56 37 60 101 78 68 83 83 75 69 63 60 56 56 54 45 37 30 25 30 38 44 54 58 54 48 42 38 36 37 38 37 36 34 32 28 24 19 20 20 19 18 18 13 10 7 5 2 0 358 357 354 349
356 55 54 2 353 2 354 354 3 27 52 30 320 339 3 357 358 12 42 56 52 44 68 84 101 69 55 66 61 54 62 64 69 67 36 72 86 87 85 85 81 78 73 64 56 50 48 42 33 32 30 26 27 29 32 47 54 49 45 39 34 32 31 32 34 33 31 29 25 22 17 18 18 18 16 14 12 8 3 3 3 0 357 354 349
315 116 114 60 350 1 2 329 338 355 18 337 348 14 17 28 14 12 25 61 9 314 303 19 35 128 123 83 65 49 62 70 70 63 72 75 98 105 98 93 86 79 74 65 54 52 48 44 37 34 28 27 29 22 23 23 50 49 45 40 33 30 29 26 28 28 28 27 25 22 19 15 16 16 15 14 11 8 5 4 3 1 357 354 349
305 273 116 26 123 348 358 298 321 309 106 29 20 30 12 32 44 74 334 11 337 294 337 353 129 114 73 104 125 91 72 68 62 76 99 104 110 111 104 91 89 86 77 68 53 45 46 41 42 37 31 30 31 27 24 24 44 45 43 38 34 31 28 24 24 25 24 23 22 19 19 17 14 12 14 12 11 8 7 4 2 359 357 353 351
263 206 185 186 199 175 195 126 191 162 164 118 62 25 9 28 49 52 115 8 354 306 348 16 146 140 159 7 133 144 135 113 110 59 109 113 120 114 102 96 88 72 65 63 55 53 48 46 48 44 38 36 34 30 27 25 37 40 37 36 33 31 28 27 24 26 23 22 21 18 18 20 15 13 13 12 11 8 9 5 1 358 355 355 353
245 223 193 212 202 183 162 172 173 161 148 137 143 213 269 240 161 75 67 108 344 311 314 45 147 124 134 118 64 107 233 136 140 38 104 117 117 106 97 91 79 70 71 68 65 55 46 42 40 41 37 34 33 32 29 26 26 24 27 31 31 30 30 27 25 23 23 21 22 19 18 23 15 14 14 13 11 10 8 5 2 357 357 354 353
249 229 207 201 210 183 177 158 152 170 176 180 182 175 268 287 249 141 141 179 185 20 328 319 33 334 201 182 167 202 166 153 116 176 338 48 106 75 74 74 76 72 57 60 54 47 41 45 37 41 36 35 31 33 30 26 26 18 28 27 29 29 29 29 26 26 23 23 21 21 18 20 16 14 16 15 12 10 8 5 2 360 356 352 354
266 245 230 229 221 192 181 179 170 185 179 160 182 197 207 185 295 156 186 143 126 5 323 287 332 135 335 270 220 179 171 153 201 128 131 51 63 88 62 60 66 55 50 50 49 49 34 43 43 44 41 34 34 31 33 28 28 24 26 29 30 29 30 31 29 28 25 25 21 21 19 20 19 15 15 16 13 12 8 6 4 2 359 358 356
257 263 240 238 222 216 195 173 177 190 181 187 193 203 200 184 154 172 244 169 171 57 286 76 65 281 350 37 90 139 160 16 155 161 145 140 85 64 64 48 54 48 45 46 45 37 35 37 46 45 42 36 31 33 30 30 24 12 20 30 32 33 31 32 31 30 28 26 25 22 19 20 21 17 16 15 14 13 10 10 7 5 3 360 355
245 252 253 238 231 210 202 203 202 217 194 188 197 180 197 187 165 156 150 255 192 150 134 247 139 230 318 30 66 80 71 59 87 94 139 147 136 118 109 68 64 54 47 51 51 41 33 38 52 49 45 36 34 31 31 32 28 21 31 31 32 32 32 32 31 34 30 30 28 24 23 21 22 18 18 15 17 16 13 11 8 7 6 3 360
284 259 260 246 244 222 200 204 209 212 208 197 182 190 191 190 195 184 168 178 267 180 183 197 183 210 222 225 114 93 84 66 68 105 72 57 156 159 158 154 128 51 68 51 56 45 38 42 54 47 45 44 38 39 34 38 37 34 38 36 34 33 35 32 34 33 33 32 29 29 26 23 24 21 19 19 19 17 16 13 8 7 7 4 4
289 279 260 266 257 237 217 216 214 210 205 196 207 206 209 193 194 189 180 172 173 184 185 202 159 155 169 172 180 183 180 164 191 347 137 137 127 144 149 111 128 126 55 61 64 52 51 49 51 45 46 53 50 48 41 45 52 43 38 37 32 34 35 34 34 34 34 33 33 31 30 27 25 23 24 22 19 16 16 14 10 5 6 7 5
295 286 273 248 237 241 232 233 226 222 216 206 205 207 206 178 174 202 201 188 185 164 161 202 190 138 167 168 193 195 199 184 193 173 183 170 151 149 140 122 96 67 114 93 63 58 50 53 47 54 51 66 60 55 52 40 51 47 34 32 33 31 33 34 33 33 33 34 34 33 31 31 25 29 27 25 21 17 16 13 12 8 9 14 9
309 298 279 261 242 232 224 219 226 223 226 211 212 205 197 186 190 195 175 193 201 165 152 202 206 206 201 176 191 163 209 211 180 181 130 116 130 122 100 101 128 138 158 169 97 59 60 55 55 50 66 74 72 61 58 50 53 48 44 23 33 30 30 32 33 33 33 34 35 35 34 30 28 30 27 23 21 19 16 15 14 11 11 13 12
295 289 280 279 256 241 225 218 224 246 237 220 211 204 193 193 195 194 195 192 155 180 181 177 206 225 197 182 182 170 201 217 200 152 150 134 146 150 139 60 96 138 123 134 154 132 77 65 63 57 71 83 78 73 63 65 61 54 48 37 26 31 29 30 32 35 35 35 36 36 34 32 29 29 25 21 21 19 17 17 15 14 12 14 11
288 286 288 279 268 252 238 191 225 223 235 227 213 196 197 199 195 202 188 187 169 167 182 146 195 205 194 205 167 160 164 191 181 191 177 173 152 155 143 128 93 115 122 72 157 337 149 90 103 76 88 98 87 77 63 60 69 61 53 38 25 30 31 29 33 36 37 36 36 36 36 35 31 29 25 21 21 19 17 16 14 15 14 15 12
293 291 285 280 275 265 230 219 218 217 219 214 206 196 194 195 204 180 187 185 172 180 187 172 206 207 196 172 171 171 157 170 191 188 194 175 152 157 155 151 146 163 171 181 210 230 172 134 135 159 172 132 115 42 71 64 64 61 53 42 34 25 33 32 35 39 39 37 35 35 36 35 32 27 24 21 20 18 16 13 16 14 13 13 13
298 297 295 292 283 270 247 240 230 222 219 214 207 208 192 198 196 186 188 196 184 201 162 189 226 203 166 181 197 172 161 163 174 188 186 166 166 167 168 169 161 136 165 192 212 171 203 193 160 185 189 182 111 74 77 54 75 68 49 46 40 35 38 35 36 39 40 38 33 31 32 33 32 29 24 20 19 16 13 11 12 13 12 12 12
307 305 304 301 299 285 261 253 249 248 236 212 203 228 201 199 198 195 191 166 179 149 186 185 202 199 158 163 165 182 151 151 166 180 182 179 159 173 182 159 159 148 153 174 199 180 161 196 194 160 190 182 164 104 94 57 85 72 55 43 44 49 43 40 34 35 34 33 31 28 27 27 26 25 23 20 17 14 11 8 7 8 8 9 10
321 315 307 302 300 293 274 266 251 234 216 211 203 220 209 190 192 188 177 167 166 174 201 176 197 166 161 156 191 154 139 129 130 158 186 165 168 161 167 149 149 140 147 131 121 209 178 171 200 187 161 174 158 137 108 86 100 86 63 45 53 55 47 36 34 31 25 26 27 26 23 22 20 18 19 18 16 14 9 6 2 0 3 6 7
329 324 315 308 304 304 301 277 264 258 236 226 207 210 198 190 182 182 186 170 162 168 183 196 176 151 147 166 173 132 114 126 125 147 172 175 152 163 157 152 131 135 137 129 114 141 167 165 164 155 161 154 154 154 131 99 107 102 74 54 55 55 44 27 17 23 21 14 15 14 13 14 12 12 14 16 14 12 10 4 0 358 358 1 3
338 335 331 325 320 313 309 309 285 253 245 241 217 209 196 191 189 189 177 185 174 182 178 168 155 152 144 136 167 115 137 130 133 138 155 164 146 151 145 133 139 161 145 126 118 115 103 96 144 154 152 139 159 164 149 131 109 112 90 50 35 49 45 17 357 2 10 5 3 0 5 4 3 5 9 12 10 8 8 2 356 358 359 356 357
341 338 336 332 325 323 307 303 297 290 299 302 299 273 212 196 196 177 188 194 185 178 182 187 187 141 151 143 161 111 97 121 135 136 146 161 161 154 170 159 159 176 188 119 120 136 154 142 130 114 140 166 167 174 176 156 137 130 124 106 346 30 11 353 351 352 348 352 350 353 356 355 357 357 360 2 3 2 4 358 355 358 1 360 354
335 339 333 331 331 329 317 319 313 313 303 279 251 241 264 226 196 189 187 202 185 179 195 213 202 162 146 161 182 158 121 104 111 130 154 164 166 170 172 172 168 175 182 151 129 115 140 157 164 157 169 169 179 172 161 147 144 148 143 169 198 296 312 322 320 327 326 336 336 339 344 347 348 350 353 356 360 0 3 0 357 0 4 2 355
338 336 337 334 334 336 331 330 333 313 293 281 267 218 205 256 261 207 182 198 205 192 193 202 186 182 176 154 195 166 154 119 110 124 119 164 174 171 169 171 152 148 163 153 123 121 146 147 191 185 176 164 177 119 135 143 140 156 175 162 205 249 284 295 304 304 299 311 325 330 337 342 347 347 346 356 1 359 2 2 359 1 5 2 358
337 337 339 342 338 340 338 338 330 288 286 283 282 281 259 215 223 246 238 207 202 204 199 193 181 177 184 187 176 169 159 128 149 117 110 161 179 181 174 155 134 141 141 128 123 117 138 160 145 180 130 144 129 160 168 160 146 139 156 184 200 219 253 273 298 284 292 309 321 329 328 339 343 346 343 1 5 359 1 2 358 3 7 7 5
336 338 343 342 343 339 337 335 320 293 271 273 278 275 280 254 203 206 225 238 221 205 198 185 167 164 180 181 167 168 159 156 182 155 147 146 166 185 177 164 140 142 146 128 127 123 132 138 150 145 181 170 169 185 186 176 168 180 205 204 213 224 230 259 264 282 289 300 322 327 318 329 348 354 343 360 9 0 1 2 1 5 8 7 6
339 340 342 342 344 340 338 336 329 312 293 274 232 246 242 245 245 205 202 222 215 202 191 183 161 152 156 158 163 167 168 178 162 178 166 149 159 188 185 158 141 136 141 145 133 126 128 130 128 154 149 150 148 180 156 177 180 203 208 213 248 208 228 237 262 265 274 286 285 292 310 325 355 10 352 358 6 4 2 5 4 9 10 9 7
341 338 339 339 336 342 344 343 336 321 302 299 289 258 204 210 224 230 229 235 233 217 184 161 151 150 154 164 166 175 182 184 175 167 164 160 150 155 169 147 145 137 140 139 130 130 135 144 150 161 163 147 151 82 98 134 168 245 214 207 238 227 225 225 242 261 274 275 295 313 336 330 357 26 5 5 8 5 4 7 5 11 13 11 9
343 337 337 343 343 345 349 350 342 334 320 300 278 276 236 221 203 220 227 235 224 202 173 147 128 130 135 158 171 179 199 184 195 155 169 151 146 152 163 160 145 142 133 136 137 131 134 136 122 108 143 167 175 161 165 180 203 222 162 188 233 248 266 252 247 231 248 279 289 312 315 342 326 15 358 12 11 2 9 11 9 10 13 12 11
344 344 345 345 346 348 347 350 347 341 335 321 308 297 266 234 218 218 219 225 213 179 166 149 128 122 132 139 182 201 172 133 113 91 102 135 169 184 162 166 152 149 145 141 149 156 144 158 171 155 165 200 190 196 197 217 138 118 146 165 214 189 116 260 259 236 221 219 286 304 326 343 316 0 22 20 5 3 7 17 15 14 14 15 16
350 348 343 350 351 346 348 348 348 347 340 340 333 319 308 295 271 272 273 256 214 187 180 171 165 152 139 128 224 175 133 113 91 87 86 75 81 163 178 177 167 159 147 148 160 158 168 172 156 171 189 196 209 191 213 185 176 194 186 172 166 151 187 255 296 357 169 188 160 274 330 4 336 23 25 29 7 3 17 20 9 17 20 20 21
345 343 354 352 350 351 348 351 350 350 348 348 340 324 322 302 291 265 234 263 250 209 178 176 158 150 144 139 108 86 114 138 116 102 87 81 81 87 116 151 174 196 182 166 157 155 171 154 168 197 179 208 193 186 200 183 198 167 164 169 177 172 180 202 168 267 72 185 148 206 326 3 344 52 45 22 9 1 14 10 10 14 21 23 23
342 355 351 351 353 349 353 351 348 348 353 355 352 339 328 310 276 229 253 274 279 265 189 173 163 150 142 136 134 106 161 126 107 101 98 81 68 75 77 82 79 91 148 11 194 184 168 158 175 175 202 182 178 212 196 181 130 161 149 185 187 174 180 193 214 248 217 180 143 122 12 358 11 35 53 20 1 353 351 4 8 11 16 21 25
353 349 349 350 348 352 349 349 344 347 355 358 353 355 357 349 24 85 53 23 322 298 272 195 166 161 161 155 150 156 137 106 122 109 96 88 78 62 56 51 60 48 51 50 121 117 180 183 172 189 208 159 197 210 180 135 153 168 174 196 149 180 181 172 220 205 36 179 195 147 84 36 3 37 46 27 355 5 2 357 5 10 17 16 24
347 344 339 340 346 347 347 346 349 354 355 355 360 358 356 7 35 105 87 63 23 336 325 314 272 187 174 169 163 158 154 151 172 144 120 110 90 79 74 65 58 53 52 40 29 20 184 193 200 216 182 193 216 148 150 177 176 154 165 167 172 147 121 119 90 86 102 196 271 271 102 105 307 65 52 22 8 25 8 0 9 12 13 13 21
347 348 348 353 350 344 339 344 355 1 351 355 359 1 0 13 358 30 86 78 79 19 307 329 294 262 206 173 159 159 159 160 172 150 121 116 95 85 77 63 71 70 70 70 58 23 26 231 234 240 160 188 174 158 160 154 122 121 101 92 97 111 126 126 135 320 239 186 253 217 115 139 309 77 79 45 25 32 5 8 7 11 12 9 14
346 348 345 342 337 337 340 347 353 358 349 354 359 0 360 360 5 359 51 75 48 42 315 293 241 267 251 190 173 159 153 168 164 147 145 119 100 92 78 63 38 55 51 19 68 66 58 59 30 295 242 194 176 163 157 155 142 132 120 112 127 134 129 142 144 326 213 289 197 203 113 142 212 119 112 54 44 32 13 5 2 8 11 8 10
343 342 337 336 339 343 343 346 349 351 346 350 357 1 360 356 344 336 319 74 94 131 274 295 270 235 250 228 180 163 164 168 162 159 157 130 112 116 116 103 62 47 14 6 33 40 58 75 69 70 90 153 159 144 144 145 150 157 140 155 161 143 133 150 160 181 287 288 207 170 146 147 129 3 129 198 109 51 17 10 3 6 9 9 12
343 339 344 345 341 345 347 343 344 355 350 348 353 356 359 358 349 320 312 255 157 252 246 240 174 177 261 260 209 182 175 160 161 166 164 145 135 146 149 111 121 208 222 21 68 61 36 44 33 47 51 75 102 115 123 136 136 53 72 110 140 147 149 157 131 118 205 245 153 173 183 169 168 73 212 274 63 84 43 11 14 12 16 10 13